Weather History for Eau Claire, WI

Change the Weather History Date:

Saturday, November 2, 2013

  Actual Average Record
Temperature  
Mean Temperature 37 °F 40 °F  
Max Temperature 47 °F 50 °F 75 °F (1933)
Min Temperature 26 °F 31 °F -1 °F (1951)
Degree Days  
Heating Degree Days 28 25  
Month to date heating degree days 52 49  
Since 1 July heating degree days 770 833  
Cooling Degree Days 0 0  
Month to date cooling degree days 0 0  
Year to date cooling degree days 653 579  
Moisture  
Dew Point 31 °F    
Average Humidity 79    
Maximum Humidity 100    
Minimum Humidity 57    
Precipitation  
Precipitation 0.00 in 0.06 in 1.13 in (1972)
Month to date precipitation 0.02 0.12  
Year to date precipitation 33.07 28.26  
Snow  
Snow 0.00 in 0.10 in 1.50 in (1910)
Month to date snowfall 0.0 0.2  
Since 1 July snowfall T 0.6  
Since 1 September snowfall T 0.6  
Snow Depth 0.00 in    
Sea Level Pressure  
Sea Level Pressure 30.03 in    
Wind  
Wind Speed 3 mph (WNW)    
Max Wind Speed 12 mph    
Max Gust Speed 15 mph    
Visibility 9 miles    
Events      
T = Trace of Precipitation, MM = Missing Value Source: NWS Daily Summary

Daily Weather History Graph

Daily Weather History Graph

Search for Another Location

Airport:

Trip Planner

Search our weather history database for the weather conditions in past years. The results will help you decide how hot, cold, wet, or windy it might be!

Date:

Astronomy

Nov. 02, 2013 Rise Set
Actual Time 7:45 AM CDT 5:52 PM CDT
Civil Twilight 7:15 AM CDT 6:23 PM CDT
Nautical Twilight 6:40 AM CDT 6:57 PM CDT
Astronomical Twilight 6:06 AM CDT 7:31 PM CDT
Moon 6:41 AM CDT (11/2) 5:24 PM CDT (11/2)
Length of Visible Light 11h 07m
Length of Day
10h 06m
Waning Crescent, 1% of the Moon is Illuminated
Nov 2
Waning Crescent
Nov 3
New
Nov 9
First Quarter
Nov 17
Full
Nov 25
Last Quarter

Hourly Weather History & Observations

Time (CDT) Temp. Windchill Dew Point Humidity Pressure Visibility Wind Dir Wind Speed Gust Speed Precip Events Conditions
12:56 AM 36.0 °F 32.1 °F 32.0 °F 86% 29.84 in 10.0 mi WNW 4.6 mph - N/A   Clear
1:56 AM 36.0 °F 32.1 °F 32.0 °F 86% 29.86 in 10.0 mi NW 4.6 mph - N/A   Overcast
2:56 AM 37.9 °F 32.7 °F 32.0 °F 79% 29.87 in 10.0 mi NW 6.9 mph - N/A   Overcast
3:56 AM 37.0 °F 33.3 °F 32.0 °F 82% 29.88 in 10.0 mi WNW 4.6 mph - N/A   Overcast
4:56 AM 37.9 °F 33.5 °F 32.0 °F 79% 29.90 in 10.0 mi WNW 5.8 mph - N/A   Overcast
5:56 AM 37.0 °F 33.3 °F 33.1 °F 86% 29.92 in 10.0 mi WNW 4.6 mph - N/A   Overcast
6:56 AM 36.0 °F 33.3 °F 33.1 °F 89% 29.94 in 10.0 mi West 3.5 mph - N/A   Mostly Cloudy
7:56 AM 37.0 °F 33.3 °F 33.1 °F 86% 29.96 in 10.0 mi WNW 4.6 mph - N/A   Overcast
8:56 AM 39.0 °F 34.0 °F 33.1 °F 79% 29.99 in 10.0 mi NNW 6.9 mph - N/A   Overcast
9:56 AM 39.0 °F 33.4 °F 32.0 °F 76% 30.01 in 10.0 mi NW 8.1 mph - N/A   Overcast
10:56 AM 39.9 °F 35.1 °F 33.1 °F 77% 30.03 in 10.0 mi NW 6.9 mph - N/A   Overcast
11:42 AM 42.8 °F 38.6 °F 33.8 °F 70% 30.02 in 10.0 mi NW 6.9 mph - N/A   Mostly Cloudy
11:56 AM 43.0 °F 38.8 °F 33.1 °F 68% 30.05 in 10.0 mi WNW 6.9 mph - N/A   Mostly Cloudy
12:56 PM 43.0 °F 40.3 °F 32.0 °F 65% 30.06 in 10.0 mi NNW 4.6 mph - N/A   Mostly Cloudy
1:38 PM 44.6 °F - 32.0 °F 61% 30.03 in 10.0 mi Calm Calm - N/A   Overcast
1:56 PM 44.1 °F - 30.9 °F 60% 30.06 in 10.0 mi Calm Calm - N/A   Mostly Cloudy
2:56 PM 44.1 °F 41.5 °F 32.0 °F 63% 30.05 in 10.0 mi SW 4.6 mph - N/A   Mostly Cloudy
3:56 PM 45.0 °F 41.8 °F 30.9 °F 58% 30.06 in 10.0 mi WSW 5.8 mph - N/A   Mostly Cloudy
4:56 PM 44.1 °F 42.5 °F 30.0 °F 58% 30.07 in 10.0 mi WNW 3.5 mph - N/A   Mostly Cloudy
5:56 PM 43.0 °F - 28.9 °F 58% 30.09 in 10.0 mi Calm Calm - N/A   Scattered Clouds
6:56 PM 36.0 °F - 30.0 °F 79% 30.11 in 10.0 mi Calm Calm - N/A   Clear
7:56 PM 30.9 °F - 28.0 °F 89% 30.13 in 10.0 mi Calm Calm - N/A   Clear
8:56 PM 30.0 °F - 28.0 °F 92% 30.12 in 10.0 mi Calm Calm - N/A   Clear
9:56 PM 28.9 °F - 28.0 °F 96% 30.14 in 10.0 mi Calm Calm - N/A   Clear
10:21 PM 30.2 °F - 26.6 °F 86% 30.11 in 1.8 mi Calm Calm - N/A   Clear
10:29 PM 28.4 °F - 28.4 °F 100% 30.11 in 3.0 mi Calm Calm - N/A   Clear
10:56 PM 28.0 °F - 26.1 °F 92% 30.15 in 6.0 mi Calm Calm - N/A   Clear
11:30 PM 28.4 °F - 26.6 °F 93% 30.12 in 1.5 mi Calm Calm - N/A   Clear
11:40 PM 28.4 °F - 26.6 °F 93% 30.12 in 5.0 mi Calm Calm - N/A   Clear
11:56 PM 28.9 °F - 26.1 °F 89% 30.15 in 7.0 mi Calm Calm - N/A   Clear